Regional Weather Roundup
Issued by NWS

Home | Current Version | Previous Version | Graphics & Text | Print | Product List | Glossary On
Versions: 1 2 3 4 5 6 7 8 9 10 11 12 13 14 15 16 17 18 19 20 21 22 23 24 25 26 27 28 29 30 31 32 33 34 35 36 37 38 39 40 41 42 43 44 45 46 47 48 49 50
000
ASUS43 KOAX 211510
RWRNE

WEATHER ROUNDUP FOR NEBRASKA
NATIONAL WEATHER SERVICE OMAHA NE
900 AM CST SUN DEC 21 2014

NOTES: SATELLITE DATA IS BEING USED TO AUGMENT CLOUD COVER ABOVE
       12000 FEET.
       "FAIR" INDICATES FEW OR NO CLOUDS BELOW 12,000 FEET WITH NO
       SIGNIFICANT WEATHER AND/OR OBSTRUCTIONS TO VISIBILITY.

  * THESE STATIONS DO NOT REPORT WEATHER SUCH AS RAIN...SNOW OR FOG.

NEZ001>004-019>022-054>056-211600-
NEBRASKA PANHANDLE

CITY           SKY/WX    TMP DP  RH WIND       PRES   REMARKS
SCOTTSBLUFF    MOCLDY    23  18  81 E8        29.62F WCI  14
ALLIANCE       CLEAR     32  22  66 SW13      29.60F WCI  22
CHADRON        PTCLDY    27  21  78 CALM      29.56F
KIMBALL        MOCLDY    30  22  71 SW6       29.64F WCI  24
SIDNEY         MOCLDY    29  21  72 SW12      29.67F WCI  19
$$

NEZ057>060-069>072-079>082-211600-
SOUTHWEST NEBRASKA

CITY           SKY/WX    TMP DP  RH WIND       PRES   REMARKS
NORTH PLATTE   CLEAR     22  20  92 CALM      29.71F FOG
IMPERIAL       CLEAR     28  23  81 SW7       29.72F WCI  21
LEXINGTON      PTCLDY    30  28  94 CALM      29.74F FOG
MCCOOK         CLEAR     31  28  89 SW8       29.75F WCI  23
OGALLALA       CLEAR     19  17  94 W9        29.69F WCI   8
$$

NEZ005>010-023>029-035>040-094-211600-
NORTH CENTRAL NEBRASKA

CITY           SKY/WX    TMP DP  RH WIND       PRES   REMARKS
VALENTINE      CLEAR     23  20  88 CALM      29.63F
AINSWORTH      CLEAR     33  25  74 SW13      29.64F WCI  23
BROKEN BOW     PTCLDY    26  23  88 CALM      29.71F FOG
O`NEILL        CLOUDY    30  29  96 S6        29.70F WCI  24
THEDFORD       CLEAR     32  27  81 S7        29.67F WCI  26
$$

NEZ041-046>049-061>064-073>077-083>087-211600-
SOUTH CENTRAL NEBRASKA

CITY           SKY/WX    TMP DP  RH WIND       PRES   REMARKS
GRAND ISLAND   PTCLDY    33  32  96 S13       29.78F FOG     WCI  24
AURORA         CLOUDY    34  34 100 S12       29.79F FOG     WCI  26
HASTINGS       FAIR      33  32  96 S12       29.78F FOG     WCI  24
HEBRON         FOG       37  35  94 S14       29.86F VSB 1/2 WCI  28
HOLDREGE       PTCLDY    33  31  94 S10       29.76S FOG     WCI  24
KEARNEY *      PTCLDY    34  30  86 S10       29.76F WCI  26
YORK           CLOUDY    36  36 100 S13       29.82F FOG     WCI  27
$$

NEZ011>018-030>034-042>045-211600-
NORTHEAST NEBRASKA

CITY           SKY/WX    TMP DP  RH WIND       PRES   REMARKS
NORFOLK        CLOUDY    34  33  96 S12G18    29.75F FOG     WCI  25
ALBION         CLOUDY    32  30  94 SE7       29.75F FOG     WCI  25
BLAIR          CLOUDY    39  37  92 S14       29.84S FOG     WCI  31
COLUMBUS *     CLOUDY    36  32  87 S8        29.82F WCI  29
FREMONT        CLOUDY    40  38  93 S7        29.84F
TEKAMAH        CLOUDY    40  37  89 S14       29.84F WCI  32
WAYNE          CLOUDY    34  34  99 S14       29.78F FOG     WCI  25
$$

NEZ050>053-065>068-078-088>093-211600-
SOUTHEAST NEBRASKA

CITY           SKY/WX    TMP DP  RH WIND       PRES   REMARKS
LINCOLN        CLOUDY    39  36  89 S12       29.87F FOG     WCI  32
OMAHA EPPLEY   CLOUDY    38  36  92 S16       29.88F FOG     WCI  29
BEATRICE       CLOUDY    38  37  97 S14       29.88F FOG     WCI  30
FALLS CITY     CLOUDY    38  35  89 S13       29.95F WCI  30
NEBRASKA CITY  CLOUDY    37  37 100 S15       29.89F FOG     WCI  28
PLATTSMOUTH    CLOUDY    37  35  93 S15       29.88F FOG     WCI  28
$$

NEZ044-045-051>053-067-211600-
OMAHA AREA

CITY           SKY/WX    TMP DP  RH WIND       PRES   REMARKS
OMAHA EPPLEY   CLOUDY    38  36  92 S16       29.88F FOG     WCI  29
BLAIR          CLOUDY    39  37  92 S14       29.84S FOG     WCI  31
FREMONT        CLOUDY    40  38  93 S7        29.84F
MILLARD        CLOUDY    39  37  89 S9        29.87F FOG     WCI  33
OFFUTT AFB     CLOUDY    38  36  92 S12       29.88F WCI  30
PLATTSMOUTH    CLOUDY    37  35  93 S15       29.88F FOG     WCI  28
WAHOO          CLOUDY    39  36  87 S16       29.84F FOG     WCI  31
$$



USA.gov is the U.S. government's official web portal to all federal, state and local government web resources and services.